Regional Weather Roundup
Issued by NWS

Home | Current Version | Previous Version | Text Only | Print | Product List | Glossary Off
Versions: 1 2 3 4 5 6 7 8 9 10 11 12 13 14 15 16 17 18 19 20 21 22 23 24 25 26 27 28 29 30 31 32 33 34 35 36 37 38 39 40 41 42 43 44 45 46 47 48 49 50

000
ASUS43 KBIS 241620
RWRND

NORTH DAKOTA REGIONAL WEATHER ROUNDUP
NATIONAL WEATHER SERVICE BISMARCK ND
1100 AM CDT THU JUL 24 2014

NOTE: "FAIR" INDICATES FEW OR NO CLOUDS BELOW 12,000 FEET WITH NO
SIGNIFICANT WEATHER AND/OR OBSTRUCTIONS TO VISIBILITY.


NDZ001>003-009>011-017-241700-
NORTHWEST NORTH DAKOTA

CITY           SKY/WX    TMP DP  RH WIND       PRES   REMARKS
WILLISTON      SUNNY     76  61  59 SE13G22   29.84F
MINOT          CLOUDY    69  62  78 SE12G21   29.85F
MINOT AFB      CLOUDY    68  65  91 SE14      29.85F
$$

NDZ018>021-031>035-040>046-241700-
SOUTHWEST NORTH DAKOTA

CITY           SKY/WX    TMP DP  RH WIND       PRES   REMARKS
BISMARCK       PTSUNNY   70  61  73 E28G38    29.89F
DICKINSON      CLOUDY    67  60  78 E18       29.85F
GARRISON         N/A     70  63  78 SE20G28   29.86F
HETTINGER ARPT MOSUNNY   71  62  73 E15       29.86F
$$

NDZ004>008-012>016-024-026-027-054-241700-
NORTHEAST NORTH DAKOTA

CITY           SKY/WX    TMP DP  RH WIND       PRES   REMARKS
GRAND FORKS    CLOUDY    71  60  68 SW3       30.06R
GRND FRKS AFB  CLOUDY    72  63  74 W8        30.11R
DEVILS LAKE    CLOUDY    63  55  77 SE30G41   29.85F
$$

NDZ022-023-025-028>030-036>039-047>053-241700-
SOUTHEAST NORTH DAKOTA

CITY           SKY/WX    TMP DP  RH WIND       PRES   REMARKS
FARGO          PTSUNNY   75  58  55 SE14      30.02F
JAMESTOWN      LGT RAIN  63  60  90 SE10      30.03F
$$




USA.gov is the U.S. government's official web portal to all federal, state and local government web resources and services.